Location: Grambois
(43.7619°N, 5.5873°E)
Time: 03:25:09
(UTC+00:00)

BREEZE-M DEB (TANK) - Pass Details

Date: 07 June 2020
Orbit: 324 x 12053 km, 49.6° (Epoch: 09 July)

Event Time Altitude Azimuth Distance (km) Brightness Sun altitude
Rises 01:22:51 0° 288° (WNW) 2,556 5.5 -19.1°
Reaches altitude 10° 01:25:23 10° 305° (NW) 1,344 4.2 -18.9°
Maximum altitude 01:27:29 23° 4° (N) 749 3.6 -18.8°
Drops below altitude 10° 01:29:34 10° 63° (ENE) 1,327 4.9 -18.6°
Sets 01:32:04 0° 80° (E) 2,512 6.1 -18.4°
